Vorticity
8 6 6 9 10 9 8 6 2 12 20 10 4 1 -3 3 4 2 2 3 7 7 6 6 6 5 1 3 5 3 4 4 6 6 2 9 13 9 6 4 4 4 4 5 7 7 6 6 6 4 3 4 7 8 9 9 8 8 8 7 6 6 6 6 6 5 6 6 4 7 7 2 4 7 6 5 5 5 5 5 8 9 11 12 10 10
8 7 10 8 4 5 8 9 10 14 18 14 6 -3 -2 -0 -3 2 4 5 9 5 7 9 5 5 2 2 4 3 4 3 4 7 3 3 9 10 7 4 4 3 4 6 5 5 5 5 5 3 3 5 9 11 11 11 12 12 11 11 10 9 9 8 8 5 6 9 6 7 8 4 3 5 6 6 4 7 5 2 3 5 8 10 9 9
9 8 9 4 1 8 11 10 11 6 8 14 8 1 5 1 -4 5 9 14 18 7 8 11 4 6 4 -1 1 2 3 4 3 5 5 4 6 9 6 3 4 3 3 4 4 4 5 5 5 5 6 9 10 9 9 10 11 11 11 12 11 10 9 7 7 6 6 8 8 8 9 8 7 5 6 7 7 8 9 7 5 4 5 7 9 11
13 6 5 9 8 8 8 8 8 6 4 7 10 8 8 6 2 5 4 9 18 12 9 8 2 5 3 -2 1 2 2 4 4 4 6 7 6 7 6 1 2 4 3 4 5 5 6 7 7 6 9 11 8 4 5 8 8 8 8 9 9 7 6 4 3 5 7 7 7 8 9 9 10 10 9 9 11 11 11 12 11 9 8 8 8 8
10 7 7 12 10 5 7 9 4 5 3 -1 9 9 5 11 12 8 2 -3 2 6 5 4 5 6 1 -3 -0 3 6 6 7 6 4 7 8 7 7 3 -0 2 6 7 8 9 8 6 5 4 7 9 10 8 6 6 3 1 4 6 8 7 4 3 2 3 6 6 6 5 5 6 7 8 9 7 7 7 8 10 11 11 11 11 10 8
6 12 10 7 8 6 8 9 3 7 7 -1 3 5 5 13 9 6 8 2 1 4 3 2 4 6 2 -2 -1 3 6 7 11 11 3 3 8 7 5 5 2 1 6 8 9 10 7 5 4 3 4 5 8 10 9 8 5 3 5 7 8 8 7 5 3 2 5 7 7 7 7 8 8 7 7 7 5 4 5 6 8 10 10 10 10 9
10 11 7 6 7 4 7 8 1 5 9 3 1 2 4 8 3 5 9 4 3 8 10 7 2 4 4 1 1 -0 -1 4 12 15 8 3 5 5 4 4 5 6 7 6 6 8 6 5 4 3 3 2 2 4 5 6 7 8 10 10 9 9 8 7 4 2 4 7 8 9 10 10 10 10 9 8 8 6 6 7 8 9 10 10 9 9
13 10 4 5 5 4 10 8 -2 1 9 5 2 4 4 2 1 6 4 -1 4 10 12 8 2 3 4 5 7 -1 -6 -0 10 15 14 8 3 5 6 4 4 7 9 6 4 6 5 3 2 1 1 2 2 2 3 3 4 7 8 9 10 10 9 8 5 3 3 6 8 8 10 11 10 10 10 9 8 6 6 6 7 7 8 8 8 8
6 10 5 2 4 9 10 5 -0 3 7 3 3 7 6 2 3 5 1 -0 6 9 9 8 6 3 3 8 8 -2 -6 1 9 15 17 12 5 4 7 6 3 4 8 7 2 2 4 3 1 0 1 3 4 4 4 4 4 6 7 8 9 9 10 9 7 6 4 4 6 7 8 9 9 9 9 8 7 7 6 6 6 7 7 7 7 7
5 6 6 2 5 8 -0 -1 5 5 5 4 3 6 5 2 6 9 6 2 3 5 6 8 9 3 3 11 6 -4 -2 3 7 11 15 14 8 4 5 7 5 2 3 5 3 1 1 2 2 2 2 3 3 4 4 6 6 7 7 7 8 8 9 10 9 7 5 2 5 7 7 7 8 8 7 7 7 6 6 6 7 7 7 7 7 6
11 2 6 3 2 3 -2 1 6 4 7 7 3 6 7 5 6 8 8 5 2 5 7 11 11 3 0 6 3 -0 1 1 2 5 12 14 10 5 4 6 7 4 2 3 4 3 1 1 2 2 2 2 3 3 3 5 6 7 7 6 7 8 8 10 11 9 6 4 5 7 7 8 8 8 7 7 6 6 5 6 7 8 8 8 6 6
10 2 5 4 2 3 3 4 5 5 8 9 7 9 10 13 16 14 12 11 11 13 10 7 10 8 6 6 3 4 6 3 1 4 11 13 10 7 4 5 6 3 3 4 5 6 4 2 1 0 1 1 1 2 2 4 4 4 5 6 6 7 8 9 11 11 9 5 5 8 8 8 8 7 7 6 5 5 5 6 8 8 8 8 7 7
8 4 4 4 3 1 1 1 4 7 9 9 12 13 11 12 14 12 13 13 14 14 7 1 5 10 13 13 6 4 7 5 2 6 12 12 11 10 6 4 4 3 4 6 5 5 4 3 1 0 1 1 1 2 2 2 3 2 3 4 6 7 8 9 11 12 10 5 3 6 8 8 7 6 6 5 4 5 6 6 8 9 9 9 8 7
7 3 3 4 2 -0 2 4 6 11 16 20 23 20 15 11 9 9 11 13 10 7 5 5 9 9 11 19 17 10 9 7 4 8 12 11 11 11 8 5 4 3 5 5 4 4 4 2 1 1 1 1 1 1 1 1 2 2 2 3 4 6 7 9 11 12 10 5 2 5 8 6 5 5 4 4 4 5 6 6 7 9 9 9 9 8
4 3 4 4 2 5 8 8 13 17 15 19 20 15 10 9 10 10 9 10 10 9 8 6 7 6 7 13 15 11 12 12 9 9 10 9 9 9 8 6 3 2 3 3 3 3 3 3 2 2 2 0 1 1 1 2 3 3 3 3 3 4 7 8 10 13 11 4 2 5 7 5 5 4 4 4 4 4 6 7 8 9 10 10 10 9
2 6 9 7 5 8 10 10 15 15 7 6 8 6 7 8 9 11 8 -0 -3 3 7 6 7 10 9 9 7 7 10 11 10 11 12 12 12 10 8 7 4 1 1 2 3 3 3 4 4 5 4 1 1 2 1 2 4 4 4 4 3 2 5 7 8 12 11 6 3 4 6 6 5 4 3 4 4 4 5 6 8 10 10 10 9 8
-1 -1 3 9 10 8 9 11 12 10 6 5 4 4 7 8 7 12 13 3 -2 3 5 6 10 13 15 17 14 9 8 9 10 12 13 15 17 16 14 12 8 4 3 3 3 3 3 4 6 8 6 2 2 3 3 2 4 5 5 5 4 2 4 6 7 9 11 8 4 4 6 6 6 4 3 4 4 4 5 6 8 10 11 10 9 9
5 2 2 5 9 9 9 11 9 3 2 5 5 7 10 8 6 6 5 7 12 12 9 9 11 11 13 13 11 8 8 9 8 7 9 11 13 16 18 16 13 10 7 5 3 2 3 5 7 9 7 4 3 3 3 4 4 5 6 7 5 3 3 4 6 7 9 10 7 4 5 6 7 6 3 3 4 4 5 6 8 10 10 10 9 9
5 5 12 10 3 6 10 11 8 0 -1 1 -1 2 6 6 10 9 3 4 9 9 11 12 10 16 22 14 6 7 8 7 6 3 5 8 10 12 13 14 14 14 12 9 5 5 7 6 5 7 7 4 4 4 4 4 4 5 7 7 6 5 4 3 5 5 7 10 9 6 5 6 8 7 4 4 3 3 5 7 9 10 10 11 10 9
-1 -11 9 26 12 3 6 6 6 1 -2 -2 -4 -1 4 3 1 1 1 5 6 9 14 9 4 15 24 14 7 8 6 4 5 3 4 7 9 11 12 12 13 14 15 14 12 11 9 5 4 6 7 5 4 5 5 4 3 5 7 6 7 7 5 3 4 4 6 9 11 8 5 7 9 8 5 4 4 3 4 6 9 10 11 11 9 9
6 -16 -8 18 15 5 5 4 4 4 2 3 4 6 10 8 0 -3 2 6 6 10 14 9 7 10 9 7 11 13 8 7 7 5 6 8 8 10 11 12 12 12 14 16 16 15 11 7 7 7 6 5 6 6 5 4 3 6 7 6 7 8 6 5 3 4 5 8 11 9 6 8 10 8 6 5 5 4 4 6 8 10 11 11 9 8
14 -1 -10 3 10 8 10 7 3 1 1 4 6 6 9 11 6 4 8 6 -1 3 10 11 12 10 5 8 14 13 10 12 10 7 7 6 7 9 10 11 11 10 10 11 12 14 12 10 9 8 6 6 6 6 4 3 4 5 6 5 6 7 7 6 4 4 5 7 10 10 6 8 11 9 7 5 5 4 4 6 8 10 11 10 8 7
13 9 -0 2 8 6 6 10 7 1 -3 -0 6 9 9 9 7 7 9 7 3 3 9 14 11 10 12 11 11 11 8 10 9 8 9 7 5 8 9 9 10 11 12 11 9 9 9 9 8 7 7 6 6 6 4 4 4 5 5 4 5 8 9 7 4 3 5 6 9 10 7 7 10 10 7 5 5 4 4 6 8 10 11 10 8 7
14 14 6 -0 4 4 2 7 9 4 -1 -1 3 2 -1 -2 2 5 -0 -0 7 7 10 15 7 7 12 2 2 10 8 8 11 8 8 6 3 5 5 6 6 8 11 12 12 11 8 8 8 8 8 7 6 6 4 4 4 3 4 4 5 8 10 8 5 4 4 6 9 10 8 6 8 10 8 6 5 3 3 5 7 9 11 10 9 7
12 16 12 4 4 4 3 4 4 3 2 4 6 7 6 0 -2 3 -2 -3 6 1 -1 7 3 5 9 -1 1 10 6 8 13 7 4 3 1 3 3 4 5 5 8 9 10 12 10 10 10 9 9 8 6 5 3 3 4 3 4 4 5 8 10 9 7 4 4 6 9 10 9 7 7 9 9 6 5 3 3 4 6 9 11 10 9 8
10 13 15 14 11 7 6 2 -1 1 4 6 6 9 16 9 -0 5 6 5 10 0 -6 2 2 3 5 1 8 10 -1 4 13 8 6 4 2 4 4 5 6 6 9 10 8 9 8 8 9 7 7 6 5 4 3 3 3 2 4 4 5 9 10 10 9 5 3 6 8 8 8 8 9 10 9 7 5 4 3 4 6 9 10 10 9 10
7 11 15 17 16 12 12 9 7 10 11 8 5 3 7 8 6 8 5 2 6 2 -1 5 5 3 -1 -3 11 10 -7 -2 11 10 8 5 4 6 6 5 5 6 10 12 12 10 8 7 7 5 5 5 5 4 3 3 3 3 5 5 6 9 10 10 9 5 3 5 6 7 8 9 10 9 9 7 5 4 4 5 8 10 11 11 10 10
5 7 11 13 13 11 10 10 11 11 4 0 2 0 -2 1 6 8 4 3 3 -2 1 4 3 9 4 -6 4 8 -5 -3 11 12 7 5 5 6 5 5 5 5 7 10 11 12 12 11 8 7 6 5 5 5 3 3 3 4 5 5 7 10 10 10 9 4 3 5 5 7 9 9 9 8 8 7 5 5 5 5 7 10 11 11 10 11
7 6 8 9 9 7 5 5 5 3 -4 -7 -3 -1 -3 -2 -0 -1 -1 4 4 -1 0 -1 -3 7 9 -5 -4 4 0 0 9 11 7 4 6 6 4 5 6 5 5 6 7 9 10 10 9 8 7 5 5 5 3 3 4 4 6 7 8 9 9 10 8 4 3 5 5 6 8 9 9 8 7 7 6 5 6 7 9 10 11 12 12 11
7 7 8 8 7 7 7 4 2 -1 -4 -4 -1 3 3 1 -1 -2 -2 2 2 -2 -0 1 -1 1 3 0 2 4 3 3 7 11 10 7 7 7 6 6 7 6 6 6 7 8 8 8 7 7 7 6 6 5 3 3 4 6 7 7 8 12 12 9 6 3 4 5 6 7 8 8 8 8 8 7 5 5 6 8 10 12 13 13 12 11
4 5 5 6 6 6 8 8 6 4 3 3 4 7 7 4 2 2 2 -0 -2 -4 -1 2 2 -1 0 6 7 3 5 10 12 13 11 8 8 8 8 7 7 6 7 7 8 8 7 7 7 7 8 6 5 5 5 3 5 8 8 7 12 16 12 6 3 3 5 5 6 7 8 8 8 8 8 6 4 6 8 10 11 13 13 13 12 11
4 5 4 4 3 3 7 9 9 9 7 6 4 3 3 2 1 2 2 1 -1 0 2 3 4 1 2 7 5 2 8 15 16 15 12 9 9 9 8 7 6 6 7 7 8 7 7 9 9 7 6 5 5 5 4 4 8 9 7 10 16 13 6 3 2 2 5 6 7 9 9 9 9 8 7 5 4 6 9 11 13 14 14 14 13 11
1 3 4 3 2 4 4 3 7 9 6 5 7 7 7 5 2 2 4 4 3 2 3 5 5 2 2 4 3 2 10 18 19 17 12 10 9 10 9 8 7 7 7 7 8 7 8 9 8 5 5 5 6 5 5 8 10 9 9 12 11 4 1 3 1 2 6 7 8 10 9 10 10 8 6 5 5 7 9 11 13 14 14 15 13 12
3 1 3 3 2 4 3 0 3 6 4 4 6 7 7 5 4 5 6 7 6 4 4 6 4 2 2 4 4 6 12 19 20 16 13 12 10 9 9 9 9 10 10 10 11 10 10 10 8 6 6 6 6 7 9 10 8 7 10 10 3 -1 2 2 1 4 8 8 9 10 10 10 9 7 6 5 6 8 9 11 14 14 14 15 14 13
10 7 7 4 2 4 7 6 7 8 9 9 7 7 8 7 5 3 3 3 1 1 5 5 1 0 3 4 6 10 13 16 18 17 16 14 10 10 11 10 11 12 12 13 13 11 11 11 8 7 7 7 9 10 9 8 8 12 11 5 -1 0 3 2 3 6 7 8 9 10 9 10 8 7 7 5 6 9 11 14 16 14 12 14 14 13
7 10 11 6 2 2 2 2 2 2 3 3 2 3 4 5 4 2 2 4 2 2 5 3 -1 2 6 8 11 14 15 17 19 19 18 15 14 14 14 12 13 13 13 14 14 13 13 11 8 8 9 9 10 9 7 8 12 12 7 2 1 3 3 3 4 7 8 9 10 10 10 10 8 7 6 5 8 12 13 14 13 10 10 12 13 12
-1 4 8 6 5 5 4 5 6 6 4 4 5 3 1 1 3 2 2 2 -0 -0 0 -1 3 9 11 11 14 15 14 17 19 17 15 15 14 14 14 14 13 12 12 12 12 12 12 10 9 10 10 10 9 7 8 10 11 6 1 2 5 4 4 4 5 8 11 11 10 10 9 9 8 8 7 8 11 13 12 12 10 9 13 15 13 13
-0 2 5 4 4 7 8 6 6 8 11 13 14 14 13 12 8 4 3 2 3 6 7 8 12 15 13 12 15 15 14 15 14 10 9 11 11 11 12 12 10 9 10 11 11 11 10 10 10 10 9 9 8 8 9 10 8 4 3 4 6 5 5 6 9 12 12 11 11 10 9 9 9 9 8 8 11 12 10 10 9 8 13 14 12 13
2 2 4 4 2 4 6 2 -2 -2 4 10 13 12 10 8 6 6 8 10 11 12 14 16 17 14 12 13 13 13 14 13 9 7 10 11 10 8 8 7 6 6 8 10 11 12 11 10 9 8 8 8 6 6 9 8 6 6 6 7 7 7 8 9 11 11 11 11 12 10 9 9 9 9 9 9 12 12 8 7 8 9 12 14 17 20
6 4 5 6 2 -0 1 1 2 7 9 9 8 6 3 4 6 8 10 11 10 8 9 14 15 11 9 11 11 11 12 11 8 7 8 6 3 3 4 3 4 5 7 9 11 11 11 10 9 8 8 8 6 7 7 6 6 7 7 6 7 8 9 10 11 12 13 14 12 9 9 10 9 9 10 12 15 10 3 4 8 9 12 15 20 25
12 10 9 9 9 8 7 5 7 13 11 6 5 6 6 10 12 10 7 7 7 8 10 13 13 11 9 8 9 9 9 9 7 5 3 1 2 4 4 4 4 5 6 8 9 9 9 10 10 9 8 8 8 9 8 7 7 6 4 5 7 8 9 10 11 10 11 10 9 10 12 12 11 10 10 13 13 6 1 7 11 10 13 18 21 24
18 17 17 16 16 15 16 18 18 12 4 4 11 11 8 8 9 9 9 9 6 6 10 11 11 12 12 8 6 7 7 9 9 7 6 7 7 6 6 5 5 6 5 5 6 7 8 10 10 10 9 10 11 10 8 7 6 5 5 7 8 8 9 10 8 8 10 11 10 12 12 10 11 11 11 11 10 5 6 11 12 12 16 20 22 22
16 18 20 20 17 9 5 10 13 6 -2 1 8 10 8 8 6 5 7 9 7 6 9 11 10 11 13 12 9 8 7 6 7 6 7 7 6 5 6 6 7 7 6 6 7 8 9 11 11 11 11 12 12 9 7 6 5 6 8 8 9 9 10 10 10 11 13 13 12 12 10 9 10 12 11 10 9 8 10 12 12 17 21 20 20 22
11 11 9 9 13 16 12 10 10 9 9 8 6 4 6 6 4 4 4 6 6 6 8 9 8 8 10 10 10 9 7 5 6 7 7 7 7 7 7 7 8 7 6 7 8 10 10 10 10 11 10 10 8 7 6 5 5 7 8 8 8 9 10 11 14 14 13 12 12 12 10 10 10 11 9 9 9 11 12 13 15 20 21 17 15 17
13 12 8 3 5 9 9 7 7 8 11 10 7 6 7 6 6 7 7 6 6 7 7 7 8 8 7 6 7 8 8 7 8 8 7 7 8 9 9 9 9 8 7 8 9 10 10 9 10 11 11 9 8 7 5 4 5 7 8 8 7 8 9 11 13 14 13 12 12 11 10 10 11 10 9 9 11 13 12 12 16 18 15 13 14 14
14 13 12 11 8 4 0 1 1 1 1 2 3 3 4 4 6 6 6 7 8 8 7 8 7 6 5 5 6 8 10 10 10 11 11 11 11 11 10 10 10 9 8 9 10 9 8 9 10 10 10 9 8 6 4 3 6 8 8 8 7 7 9 10 11 14 13 11 10 10 10 11 10 8 10 11 11 12 11 11 17 19 15 14 16 13
10 8 7 10 10 7 7 8 5 4 4 5 5 5 4 6 8 8 6 6 7 6 6 7 6 5 6 6 8 10 11 11 13 13 11 11 12 13 14 13 13 13 12 11 11 10 9 10 9 7 7 7 7 6 4 4 7 9 9 8 8 8 9 11 13 14 12 10 10 10 10 10 9 9 10 11 11 11 11 13 18 20 17 15 17 16
9 7 7 11 8 4 8 11 7 4 6 6 5 6 8 7 7 7 6 5 6 7 7 6 6 7 7 9 11 13 13 13 14 13 13 15 16 14 13 12 10 8 6 7 10 12 10 9 7 5 6 8 6 6 6 6 7 10 10 9 8 7 10 14 15 13 11 12 12 11 10 10 10 10 10 10 11 11 11 14 18 20 19 16 16 19
6 5 8 11 7 4 8 11 5 1 6 9 9 8 8 7 6 7 7 6 6 7 7 6 7 8 10 13 15 15 15 17 17 15 15 16 12 6 4 5 4 3 3 5 10 13 9 6 4 4 6 7 7 7 8 7 7 9 9 7 7 7 10 14 15 12 12 13 12 9 10 11 10 11 10 8 10 12 12 14 17 18 20 21 20 22
8 10 12 11 10 12 17 18 15 10 10 13 13 10 8 7 6 8 7 5 6 8 8 8 9 10 13 14 13 14 18 21 18 12 7 6 5 3 2 3 5 6 5 4 7 9 7 3 2 2 4 6 8 9 8 7 6 7 7 6 7 10 13 15 15 13 12 13 12 10 10 11 10 10 10 9 10 12 13 14 16 20 27 34 33 28
3 4 5 3 2 4 6 6 6 6 5 4 4 5 6 6 5 6 7 5 5 7 8 9 11 14 14 13 13 17 21 20 11 3 0 1 2 1 1 4 7 5 1 4 9 9 5 1 -1 1 5 7 7 8 8 7 6 6 6 6 8 12 15 14 14 15 13 12 12 12 10 10 10 10 10 11 11 11 12 13 18 26 35 41 39 30
Height
5923 5924 5926 5927 5929 5931 5932 5933 5935 5936 5938 5938 5939 5941 5942 5943 5942 5941 5941 5942 5942 5943 5942 5942 5942 5942 5941 5940 5940 5940 5940 5940 5941 5942 5942 5943 5944 5943 5942 5942 5942 5941 5941 5941 5941 5940 5940 5940 5939 5939 5938 5938 5937 5936 5936 5935 5935 5934 5934 5933 5931 5930 5929 5928 5927 5925 5925 5925 5924 5922 5921 5918 5915 5913 5912 5910 5908 5906 5904 5903 5903 5904 5904 5903 5903 5901
5922 5923 5925 5927 5928 5929 5931 5932 5933 5934 5935 5937 5938 5940 5942 5944 5943 5941 5941 5941 5942 5942 5942 5941 5942 5941 5941 5941 5940 5940 5940 5940 5940 5941 5941 5942 5943 5943 5943 5942 5942 5942 5941 5941 5941 5940 5940 5940 5939 5939 5938 5937 5937 5936 5936 5935 5934 5934 5933 5932 5931 5930 5928 5927 5926 5924 5923 5922 5922 5920 5919 5917 5915 5912 5910 5909 5906 5905 5903 5900 5899 5899 5899 5899 5899 5898
5921 5923 5924 5925 5926 5928 5930 5931 5932 5933 5935 5936 5937 5939 5941 5942 5942 5941 5941 5941 5941 5942 5941 5941 5941 5941 5941 5941 5940 5940 5940 5940 5940 5940 5940 5941 5942 5943 5943 5942 5942 5942 5941 5941 5941 5940 5940 5939 5939 5938 5938 5937 5936 5936 5935 5934 5934 5933 5932 5932 5931 5929 5928 5926 5925 5923 5921 5919 5918 5918 5917 5915 5913 5911 5909 5907 5905 5903 5901 5899 5897 5895 5895 5895 5895 5895
5921 5922 5923 5924 5925 5927 5929 5930 5931 5933 5934 5936 5937 5939 5941 5941 5940 5940 5941 5941 5941 5941 5941 5941 5940 5940 5940 5940 5940 5940 5940 5939 5939 5939 5939 5940 5941 5941 5942 5942 5942 5941 5941 5941 5940 5940 5940 5939 5938 5938 5937 5936 5935 5935 5934 5933 5932 5932 5931 5930 5929 5928 5927 5925 5924 5922 5920 5918 5916 5915 5914 5913 5911 5909 5907 5905 5903 5901 5899 5897 5895 5894 5893 5892 5891 5891
5920 5921 5922 5923 5925 5926 5927 5928 5930 5931 5933 5935 5936 5938 5940 5940 5940 5940 5940 5940 5940 5940 5940 5940 5940 5940 5939 5939 5939 5939 5939 5938 5938 5938 5938 5939 5939 5940 5940 5941 5941 5941 5940 5940 5940 5939 5939 5938 5938 5937 5936 5935 5934 5934 5933 5932 5931 5930 5930 5929 5927 5926 5925 5924 5922 5920 5918 5916 5915 5914 5912 5911 5910 5908 5906 5904 5901 5899 5897 5895 5893 5892 5891 5890 5889 5888
5918 5919 5921 5922 5923 5924 5925 5927 5928 5930 5933 5934 5934 5935 5937 5938 5939 5939 5939 5939 5939 5938 5939 5939 5939 5938 5938 5938 5939 5938 5938 5938 5937 5937 5937 5937 5938 5938 5939 5939 5939 5939 5939 5939 5939 5938 5938 5937 5937 5936 5935 5934 5933 5932 5932 5931 5930 5929 5928 5927 5926 5925 5924 5922 5921 5919 5918 5916 5914 5912 5911 5909 5908 5906 5904 5902 5900 5898 5895 5893 5891 5889 5887 5886 5885 5884
5917 5918 5920 5921 5922 5923 5924 5926 5927 5929 5934 5935 5932 5932 5934 5935 5936 5937 5937 5938 5937 5937 5937 5937 5937 5937 5937 5937 5937 5937 5937 5937 5936 5936 5935 5936 5936 5937 5937 5937 5937 5938 5938 5937 5937 5937 5937 5936 5935 5935 5934 5933 5932 5932 5931 5930 5929 5928 5927 5926 5925 5924 5922 5921 5920 5918 5917 5915 5913 5911 5910 5908 5906 5904 5902 5900 5898 5896 5894 5892 5890 5887 5885 5884 5882 5881
5916 5917 5918 5919 5921 5922 5924 5926 5926 5927 5932 5934 5931 5931 5932 5933 5934 5934 5935 5936 5936 5935 5935 5935 5935 5935 5935 5935 5935 5936 5936 5936 5935 5935 5934 5934 5935 5935 5935 5936 5936 5936 5936 5936 5936 5936 5935 5935 5934 5933 5933 5932 5931 5930 5930 5929 5928 5927 5926 5925 5924 5922 5921 5920 5918 5917 5915 5914 5912 5910 5908 5906 5904 5902 5901 5899 5897 5895 5893 5891 5888 5886 5884 5882 5880 5878
5915 5916 5917 5918 5920 5922 5923 5925 5925 5926 5929 5930 5929 5930 5931 5932 5932 5933 5934 5934 5933 5933 5933 5933 5933 5934 5934 5934 5933 5934 5934 5935 5934 5933 5933 5933 5934 5934 5934 5934 5934 5934 5934 5934 5934 5934 5934 5933 5933 5932 5931 5930 5930 5929 5928 5927 5926 5925 5924 5923 5922 5921 5919 5918 5916 5915 5913 5911 5910 5908 5906 5904 5902 5900 5898 5897 5895 5893 5891 5889 5887 5884 5882 5880 5877 5875
5913 5914 5916 5917 5920 5921 5921 5922 5923 5925 5926 5927 5928 5929 5930 5930 5931 5932 5932 5932 5931 5931 5931 5932 5932 5932 5933 5933 5931 5932 5932 5932 5932 5932 5932 5932 5932 5932 5932 5932 5932 5933 5933 5932 5932 5932 5931 5931 5931 5930 5929 5928 5928 5927 5926 5925 5924 5923 5922 5921 5920 5918 5917 5915 5914 5912 5910 5909 5907 5905 5903 5901 5899 5897 5895 5894 5892 5890 5887 5885 5883 5881 5879 5877 5874 5872
5912 5913 5914 5916 5918 5919 5919 5920 5922 5923 5925 5926 5926 5927 5928 5929 5929 5929 5930 5930 5930 5930 5931 5931 5930 5930 5932 5932 5930 5930 5930 5930 5930 5930 5930 5930 5930 5930 5930 5930 5930 5931 5931 5930 5930 5930 5929 5929 5928 5928 5927 5926 5925 5925 5924 5923 5922 5921 5920 5919 5917 5916 5914 5912 5911 5909 5908 5906 5904 5903 5901 5898 5896 5894 5892 5890 5888 5886 5884 5882 5880 5877 5875 5872 5870 5868
5911 5912 5913 5914 5915 5916 5918 5919 5921 5922 5923 5924 5925 5926 5926 5927 5927 5928 5928 5928 5929 5929 5929 5929 5928 5927 5928 5930 5930 5928 5927 5927 5928 5928 5928 5928 5928 5928 5928 5928 5928 5928 5928 5928 5928 5927 5927 5927 5926 5925 5925 5924 5923 5922 5922 5921 5920 5919 5918 5916 5915 5913 5911 5909 5908 5906 5905 5904 5902 5900 5898 5896 5894 5892 5889 5887 5885 5883 5881 5878 5876 5873 5871 5868 5866 5863
5909 5910 5911 5913 5914 5915 5916 5918 5919 5920 5921 5922 5923 5923 5924 5925 5925 5926 5926 5926 5927 5928 5926 5927 5927 5925 5925 5927 5927 5926 5925 5925 5925 5925 5926 5926 5926 5926 5926 5926 5926 5926 5926 5926 5926 5925 5925 5925 5924 5923 5923 5922 5921 5920 5919 5918 5917 5916 5915 5914 5912 5910 5908 5907 5905 5904 5902 5901 5899 5898 5896 5894 5892 5890 5887 5885 5882 5880 5877 5875 5873 5870 5868 5865 5862 5860
5907 5907 5909 5911 5911 5912 5914 5915 5916 5918 5919 5920 5921 5921 5923 5924 5924 5925 5925 5925 5926 5925 5923 5924 5924 5923 5924 5924 5924 5923 5923 5923 5923 5923 5923 5924 5924 5924 5924 5923 5923 5923 5924 5924 5924 5923 5923 5922 5922 5921 5920 5919 5918 5918 5917 5916 5915 5914 5912 5911 5909 5907 5906 5904 5902 5901 5899 5898 5896 5894 5893 5891 5889 5887 5884 5882 5879 5877 5874 5872 5869 5867 5865 5862 5860 5857
5906 5905 5906 5908 5909 5911 5912 5913 5915 5916 5917 5918 5919 5920 5922 5924 5924 5925 5925 5925 5925 5924 5921 5921 5921 5921 5922 5921 5921 5921 5920 5920 5921 5920 5921 5921 5922 5922 5921 5921 5921 5921 5921 5921 5922 5921 5920 5920 5919 5919 5918 5917 5916 5915 5914 5913 5912 5911 5910 5908 5906 5905 5903 5901 5900 5898 5896 5895 5893 5891 5889 5888 5886 5883 5881 5879 5876 5874 5871 5868 5866 5864 5861 5859 5857 5854
5905 5905 5904 5906 5908 5909 5911 5912 5912 5914 5915 5916 5917 5918 5920 5922 5922 5922 5922 5922 5923 5922 5919 5918 5918 5918 5919 5919 5918 5918 5918 5918 5919 5918 5918 5919 5919 5919 5919 5919 5919 5919 5918 5919 5919 5919 5918 5917 5916 5916 5915 5914 5913 5912 5911 5910 5909 5908 5907 5905 5904 5902 5900 5899 5897 5895 5893 5891 5890 5888 5886 5884 5882 5880 5878 5875 5873 5870 5868 5865 5863 5860 5858 5856 5853 5851
5904 5904 5902 5904 5906 5907 5909 5909 5910 5912 5914 5914 5915 5916 5917 5918 5918 5918 5919 5919 5918 5919 5918 5916 5916 5916 5916 5916 5915 5915 5915 5915 5916 5916 5916 5916 5917 5917 5917 5917 5916 5916 5915 5916 5916 5916 5915 5914 5913 5913 5912 5911 5910 5910 5908 5907 5906 5906 5904 5903 5901 5899 5898 5896 5894 5892 5890 5888 5886 5884 5882 5880 5878 5876 5874 5872 5870 5867 5864 5862 5859 5857 5855 5852 5850 5847
5902 5902 5901 5903 5905 5905 5907 5908 5908 5910 5911 5912 5913 5914 5914 5915 5915 5916 5917 5917 5916 5917 5916 5914 5914 5914 5914 5914 5912 5912 5913 5913 5913 5913 5913 5913 5914 5915 5915 5914 5913 5912 5912 5913 5913 5913 5912 5911 5910 5910 5909 5908 5908 5907 5906 5904 5904 5903 5901 5899 5898 5896 5894 5893 5891 5889 5887 5885 5883 5881 5879 5877 5875 5873 5871 5868 5866 5864 5861 5858 5856 5853 5851 5849 5846 5843
5900 5901 5900 5900 5902 5903 5905 5906 5907 5907 5908 5910 5911 5911 5912 5914 5914 5914 5914 5916 5916 5916 5916 5913 5912 5912 5912 5911 5910 5909 5910 5910 5910 5910 5910 5911 5911 5912 5912 5911 5910 5909 5909 5910 5910 5909 5909 5908 5907 5906 5906 5905 5904 5903 5902 5901 5900 5900 5898 5896 5894 5893 5891 5890 5888 5886 5884 5882 5880 5878 5876 5874 5872 5869 5867 5865 5862 5860 5857 5855 5852 5850 5847 5845 5842 5840
5896 5899 5898 5898 5900 5902 5902 5903 5904 5904 5905 5907 5908 5909 5910 5911 5913 5912 5912 5913 5914 5914 5915 5913 5912 5912 5911 5909 5908 5907 5907 5907 5907 5908 5908 5908 5908 5908 5908 5908 5907 5907 5906 5906 5906 5905 5905 5904 5903 5903 5902 5902 5901 5900 5899 5898 5897 5896 5895 5893 5891 5890 5888 5887 5885 5883 5881 5879 5877 5875 5873 5871 5868 5866 5864 5861 5859 5856 5854 5851 5848 5845 5843 5840 5838 5835
5892 5896 5896 5894 5896 5898 5898 5899 5902 5903 5903 5905 5906 5907 5907 5908 5910 5910 5909 5910 5911 5911 5911 5911 5911 5912 5910 5907 5906 5906 5905 5906 5905 5905 5905 5905 5905 5905 5905 5905 5904 5903 5903 5902 5902 5902 5901 5901 5900 5900 5899 5898 5898 5897 5896 5895 5894 5893 5892 5890 5888 5887 5885 5884 5882 5880 5878 5876 5874 5872 5870 5868 5865 5863 5860 5858 5855 5853 5850 5847 5844 5841 5838 5836 5833 5830
5889 5892 5893 5891 5893 5896 5896 5896 5899 5900 5901 5903 5904 5905 5906 5906 5907 5908 5908 5908 5908 5908 5908 5907 5908 5909 5907 5904 5904 5904 5904 5904 5903 5903 5903 5902 5902 5902 5902 5901 5901 5900 5900 5899 5898 5898 5897 5897 5897 5896 5896 5895 5894 5894 5893 5892 5890 5890 5889 5887 5885 5883 5882 5880 5879 5876 5874 5872 5870 5868 5866 5864 5862 5859 5856 5854 5851 5849 5846 5843 5840 5837 5834 5831 5828 5825
5886 5888 5890 5890 5890 5892 5892 5894 5897 5898 5899 5901 5902 5904 5905 5904 5904 5906 5907 5905 5904 5905 5905 5904 5905 5905 5903 5902 5902 5902 5902 5902 5901 5901 5900 5899 5899 5899 5898 5898 5898 5897 5897 5896 5895 5895 5894 5894 5893 5893 5893 5892 5891 5890 5889 5888 5887 5886 5885 5883 5882 5880 5878 5877 5875 5873 5870 5868 5866 5864 5862 5860 5857 5855 5852 5850 5847 5844 5842 5839 5835 5832 5829 5826 5823 5820
5882 5884 5887 5887 5887 5889 5890 5892 5895 5895 5896 5897 5898 5901 5902 5903 5903 5904 5904 5902 5902 5902 5902 5901 5902 5902 5900 5900 5900 5900 5900 5899 5899 5898 5898 5897 5896 5896 5895 5895 5895 5894 5894 5893 5892 5891 5890 5890 5890 5889 5889 5888 5888 5887 5886 5884 5883 5882 5881 5880 5878 5876 5875 5873 5871 5869 5867 5864 5862 5859 5857 5855 5852 5850 5847 5845 5843 5840 5837 5834 5831 5828 5825 5822 5819 5815
5879 5880 5883 5884 5884 5886 5887 5888 5890 5890 5892 5894 5895 5896 5898 5899 5900 5900 5900 5899 5899 5900 5899 5899 5901 5901 5898 5897 5898 5897 5896 5896 5896 5895 5895 5894 5893 5893 5892 5891 5891 5891 5890 5890 5889 5888 5887 5886 5886 5886 5885 5885 5884 5883 5882 5881 5879 5878 5877 5875 5874 5872 5871 5869 5867 5865 5863 5860 5858 5855 5853 5850 5848 5845 5843 5840 5838 5835 5832 5829 5826 5823 5820 5817 5814 5811
5876 5877 5879 5880 5881 5882 5883 5885 5886 5887 5890 5892 5892 5893 5895 5895 5896 5897 5896 5895 5896 5897 5896 5897 5898 5898 5895 5894 5894 5893 5893 5893 5892 5892 5891 5891 5890 5890 5889 5888 5888 5888 5887 5886 5885 5884 5883 5883 5882 5882 5882 5881 5880 5879 5878 5877 5875 5874 5873 5871 5869 5868 5866 5865 5863 5860 5858 5856 5853 5851 5849 5846 5843 5840 5838 5836 5833 5830 5827 5824 5821 5818 5815 5812 5809 5806
5873 5874 5875 5877 5878 5880 5882 5883 5884 5887 5889 5889 5890 5891 5892 5892 5893 5894 5893 5892 5892 5892 5892 5893 5894 5895 5894 5892 5890 5889 5890 5890 5889 5889 5888 5888 5887 5886 5885 5884 5884 5884 5884 5883 5882 5881 5880 5879 5879 5878 5878 5877 5876 5876 5874 5873 5872 5870 5868 5866 5865 5863 5862 5860 5858 5856 5853 5851 5849 5847 5844 5841 5838 5835 5833 5830 5828 5825 5822 5818 5815 5813 5810 5807 5804 5801
5870 5872 5873 5875 5876 5878 5880 5880 5882 5885 5886 5886 5887 5887 5888 5889 5889 5889 5889 5889 5888 5889 5889 5889 5889 5891 5892 5891 5887 5886 5886 5887 5886 5886 5885 5884 5884 5883 5882 5881 5880 5879 5879 5879 5878 5877 5876 5876 5875 5875 5874 5873 5872 5872 5870 5869 5868 5866 5864 5862 5861 5859 5857 5855 5853 5851 5849 5847 5845 5842 5839 5836 5834 5831 5828 5825 5823 5820 5817 5813 5810 5808 5805 5802 5799 5796
5868 5870 5871 5872 5874 5875 5876 5877 5879 5881 5882 5883 5883 5883 5884 5885 5885 5886 5886 5885 5885 5885 5886 5885 5884 5886 5888 5887 5884 5883 5883 5883 5883 5883 5882 5881 5881 5880 5879 5878 5877 5875 5875 5874 5874 5873 5872 5871 5871 5870 5870 5869 5868 5868 5866 5865 5863 5861 5860 5858 5856 5855 5853 5850 5848 5846 5844 5842 5840 5837 5834 5832 5829 5826 5823 5820 5818 5815 5811 5808 5805 5803 5800 5797 5794 5791
5865 5866 5867 5869 5871 5871 5873 5874 5876 5877 5878 5879 5879 5879 5880 5881 5881 5882 5882 5881 5881 5882 5882 5881 5880 5881 5884 5883 5881 5880 5880 5879 5879 5879 5878 5877 5877 5876 5876 5875 5874 5872 5871 5870 5869 5868 5868 5867 5866 5866 5866 5865 5864 5863 5862 5861 5859 5857 5855 5854 5852 5850 5848 5846 5843 5841 5839 5837 5835 5832 5830 5827 5824 5821 5818 5816 5813 5810 5806 5803 5800 5797 5794 5791 5788 5785
5862 5862 5864 5867 5867 5868 5869 5871 5872 5874 5875 5875 5876 5875 5876 5877 5878 5879 5878 5877 5878 5878 5878 5877 5876 5877 5879 5878 5877 5878 5876 5875 5874 5874 5874 5873 5873 5872 5872 5871 5870 5869 5867 5866 5865 5864 5863 5863 5862 5862 5861 5860 5860 5859 5858 5856 5854 5853 5851 5849 5847 5845 5843 5841 5839 5837 5835 5832 5830 5828 5825 5822 5819 5816 5813 5811 5808 5805 5801 5798 5795 5792 5789 5787 5783 5780
5858 5859 5861 5864 5863 5863 5866 5867 5868 5870 5871 5871 5871 5871 5873 5874 5874 5874 5874 5874 5874 5873 5873 5873 5872 5872 5872 5871 5872 5873 5872 5870 5870 5869 5869 5869 5869 5868 5867 5866 5865 5864 5863 5863 5861 5860 5859 5859 5858 5858 5857 5856 5855 5855 5853 5852 5850 5849 5847 5844 5842 5840 5839 5837 5835 5832 5830 5828 5826 5823 5820 5817 5815 5812 5809 5806 5803 5800 5796 5792 5790 5787 5785 5782 5779 5775
5854 5856 5857 5859 5860 5859 5860 5863 5865 5865 5866 5865 5865 5867 5869 5870 5870 5870 5869 5869 5869 5869 5869 5869 5868 5867 5866 5865 5865 5866 5867 5866 5865 5865 5865 5864 5864 5863 5863 5861 5861 5860 5859 5858 5857 5856 5855 5855 5854 5853 5852 5852 5851 5850 5849 5848 5846 5844 5842 5839 5838 5836 5834 5832 5831 5828 5826 5823 5821 5819 5816 5813 5810 5807 5805 5802 5799 5796 5791 5788 5785 5782 5780 5777 5774 5770
5851 5853 5852 5854 5857 5855 5855 5859 5861 5860 5860 5859 5859 5862 5865 5865 5865 5865 5865 5864 5863 5864 5864 5864 5864 5862 5861 5860 5860 5860 5861 5861 5861 5860 5860 5859 5859 5859 5858 5857 5856 5855 5854 5854 5853 5852 5851 5851 5850 5849 5848 5847 5847 5846 5845 5844 5842 5839 5837 5835 5833 5831 5829 5828 5826 5824 5821 5819 5816 5814 5811 5808 5805 5803 5800 5797 5794 5791 5787 5784 5781 5778 5775 5772 5769 5766
5847 5848 5847 5849 5852 5850 5851 5855 5856 5854 5855 5855 5856 5858 5860 5861 5861 5861 5860 5859 5858 5858 5859 5860 5858 5857 5856 5856 5855 5855 5856 5856 5856 5856 5855 5854 5854 5853 5853 5852 5851 5850 5850 5849 5848 5848 5847 5846 5845 5844 5844 5843 5843 5842 5841 5839 5837 5834 5832 5831 5828 5826 5825 5823 5821 5819 5817 5814 5811 5809 5806 5804 5801 5798 5795 5792 5789 5786 5783 5780 5777 5774 5771 5767 5764 5760
5843 5843 5843 5844 5846 5846 5848 5850 5850 5850 5850 5851 5852 5854 5856 5857 5857 5856 5856 5854 5853 5853 5854 5854 5853 5852 5852 5852 5851 5850 5850 5850 5850 5850 5849 5848 5848 5848 5848 5847 5846 5845 5845 5844 5844 5843 5843 5842 5841 5840 5840 5839 5839 5838 5836 5834 5832 5830 5828 5826 5824 5822 5820 5818 5815 5813 5811 5809 5806 5803 5801 5798 5796 5793 5790 5787 5784 5781 5778 5775 5772 5769 5766 5762 5758 5755
5838 5839 5839 5839 5840 5843 5844 5845 5846 5846 5846 5846 5848 5849 5851 5851 5851 5850 5851 5850 5849 5848 5849 5849 5848 5848 5847 5847 5846 5846 5845 5845 5845 5844 5843 5843 5843 5843 5842 5842 5841 5841 5840 5840 5840 5839 5838 5838 5837 5836 5836 5835 5834 5832 5831 5829 5827 5825 5823 5822 5820 5818 5816 5813 5810 5808 5806 5803 5800 5798 5796 5793 5791 5788 5785 5782 5779 5776 5773 5770 5767 5763 5760 5757 5753 5750
5834 5835 5835 5835 5836 5839 5840 5841 5841 5841 5841 5842 5843 5843 5844 5845 5845 5845 5845 5845 5845 5845 5845 5844 5844 5843 5843 5842 5842 5842 5841 5841 5841 5839 5838 5839 5839 5838 5837 5837 5837 5836 5836 5836 5835 5835 5834 5833 5832 5832 5831 5830 5829 5827 5825 5824 5822 5820 5819 5817 5815 5813 5811 5807 5805 5803 5800 5798 5795 5793 5790 5788 5786 5783 5781 5778 5774 5771 5767 5764 5761 5758 5755 5752 5749 5746
5829 5830 5830 5831 5832 5833 5835 5836 5836 5837 5838 5838 5837 5837 5838 5839 5840 5840 5841 5841 5841 5840 5840 5841 5840 5839 5839 5838 5838 5838 5838 5838 5837 5835 5835 5835 5834 5834 5833 5833 5833 5832 5832 5831 5831 5830 5829 5828 5827 5827 5826 5825 5823 5822 5820 5819 5817 5816 5814 5812 5810 5808 5805 5802 5800 5798 5795 5793 5790 5787 5785 5783 5781 5778 5776 5773 5769 5766 5762 5759 5756 5753 5750 5747 5744 5741
5823 5824 5825 5827 5827 5827 5830 5831 5832 5834 5833 5831 5831 5832 5832 5833 5835 5836 5836 5837 5835 5833 5834 5837 5836 5835 5835 5834 5834 5834 5834 5834 5833 5831 5831 5831 5830 5829 5829 5829 5828 5828 5827 5826 5826 5825 5824 5823 5822 5822 5820 5819 5818 5817 5816 5814 5813 5811 5809 5808 5806 5803 5800 5798 5796 5793 5791 5788 5785 5782 5780 5778 5775 5773 5770 5767 5764 5760 5757 5754 5751 5747 5744 5741 5739 5736
5817 5818 5820 5821 5822 5823 5824 5826 5828 5829 5827 5825 5826 5828 5828 5829 5831 5831 5831 5832 5830 5828 5830 5832 5832 5831 5831 5830 5830 5830 5829 5829 5828 5827 5827 5826 5825 5825 5825 5824 5824 5823 5822 5822 5821 5820 5819 5818 5817 5816 5815 5814 5813 5812 5811 5809 5808 5806 5804 5803 5801 5798 5795 5793 5791 5788 5786 5783 5780 5777 5774 5772 5770 5767 5765 5762 5758 5755 5752 5749 5745 5742 5739 5736 5734 5731
5811 5813 5814 5816 5818 5819 5819 5820 5823 5822 5820 5820 5822 5823 5824 5826 5826 5825 5826 5827 5826 5824 5825 5827 5827 5827 5827 5827 5826 5826 5825 5824 5823 5823 5822 5821 5821 5821 5820 5820 5819 5819 5818 5818 5817 5816 5815 5814 5813 5812 5811 5810 5809 5808 5806 5804 5802 5801 5799 5797 5795 5792 5789 5787 5785 5783 5780 5777 5775 5772 5769 5766 5764 5761 5758 5756 5753 5750 5746 5743 5739 5736 5733 5730 5728 5726
5805 5807 5809 5810 5812 5813 5813 5814 5816 5814 5813 5816 5818 5817 5818 5821 5820 5820 5821 5821 5821 5821 5821 5822 5823 5823 5823 5822 5822 5822 5821 5820 5818 5818 5817 5817 5817 5817 5816 5815 5815 5814 5814 5813 5812 5811 5810 5809 5808 5807 5806 5805 5804 5802 5801 5799 5797 5795 5793 5791 5788 5785 5783 5780 5778 5776 5774 5772 5769 5766 5763 5760 5758 5755 5752 5749 5746 5743 5740 5737 5734 5730 5728 5725 5723 5721
5801 5803 5804 5804 5805 5808 5809 5808 5807 5807 5808 5811 5812 5811 5813 5814 5815 5816 5816 5816 5817 5817 5817 5817 5818 5818 5818 5818 5817 5817 5817 5816 5814 5813 5813 5813 5813 5812 5811 5811 5810 5809 5809 5808 5807 5806 5805 5804 5803 5802 5801 5800 5799 5797 5795 5794 5792 5790 5788 5785 5782 5780 5777 5775 5772 5771 5769 5766 5763 5760 5757 5755 5752 5749 5746 5743 5740 5737 5733 5731 5728 5725 5723 5720 5718 5716
5795 5797 5799 5799 5800 5803 5804 5802 5801 5803 5805 5806 5806 5807 5809 5809 5810 5811 5812 5812 5813 5813 5812 5812 5812 5812 5813 5812 5812 5812 5811 5811 5810 5809 5808 5809 5808 5807 5807 5806 5805 5804 5804 5803 5802 5801 5800 5799 5797 5796 5795 5795 5793 5792 5790 5788 5786 5784 5782 5780 5777 5775 5772 5770 5768 5766 5763 5761 5758 5755 5752 5749 5746 5744 5741 5737 5734 5731 5728 5725 5723 5720 5718 5715 5713 5712
5790 5792 5794 5794 5795 5797 5797 5796 5798 5800 5800 5800 5800 5801 5803 5804 5804 5805 5805 5806 5807 5807 5807 5807 5807 5807 5807 5806 5806 5805 5805 5805 5804 5803 5802 5803 5802 5802 5801 5800 5800 5799 5798 5798 5797 5795 5794 5793 5792 5791 5790 5789 5788 5787 5785 5783 5781 5779 5776 5774 5772 5770 5768 5765 5763 5761 5758 5755 5752 5750 5747 5744 5741 5739 5735 5732 5728 5726 5723 5720 5717 5715 5713 5711 5709 5707
5784 5787 5788 5788 5790 5792 5791 5792 5794 5795 5795 5795 5796 5796 5797 5798 5798 5799 5799 5799 5800 5801 5801 5801 5801 5801 5801 5800 5800 5799 5798 5798 5798 5796 5796 5796 5796 5795 5795 5794 5793 5793 5793 5792 5791 5790 5789 5788 5786 5785 5784 5783 5782 5781 5779 5777 5775 5773 5771 5769 5766 5764 5762 5760 5757 5755 5752 5750 5747 5744 5742 5739 5736 5733 5730 5727 5724 5720 5718 5716 5713 5710 5708 5706 5705 5703
5779 5782 5781 5782 5785 5786 5785 5787 5791 5791 5790 5790 5790 5790 5791 5792 5793 5794 5794 5794 5794 5794 5794 5795 5795 5795 5794 5794 5794 5793 5793 5792 5792 5791 5790 5790 5790 5789 5788 5788 5787 5787 5786 5786 5785 5784 5783 5782 5781 5780 5778 5777 5776 5774 5772 5771 5769 5767 5765 5763 5761 5758 5756 5754 5752 5749 5747 5744 5741 5739 5737 5734 5731 5727 5724 5721 5719 5715 5712 5710 5708 5706 5703 5701 5700 5698
5774 5775 5775 5777 5780 5780 5779 5781 5785 5785 5783 5784 5785 5785 5786 5787 5787 5788 5788 5788 5788 5788 5788 5788 5788 5788 5788 5788 5788 5788 5787 5786 5786 5785 5784 5784 5784 5783 5782 5782 5781 5781 5781 5780 5779 5778 5777 5776 5775 5774 5772 5771 5770 5768 5767 5765 5763 5761 5760 5758 5755 5753 5751 5749 5747 5744 5741 5738 5736 5733 5731 5729 5726 5723 5720 5717 5714 5712 5708 5705 5703 5701 5699 5696 5694 5693
5768 5768 5769 5772 5774 5773 5772 5776 5779 5778 5777 5777 5779 5779 5779 5781 5782 5782 5782 5782 5782 5782 5782 5782 5782 5782 5782 5782 5782 5782 5781 5781 5780 5779 5779 5779 5778 5777 5777 5776 5775 5775 5775 5774 5773 5772 5771 5770 5769 5768 5766 5765 5764 5762 5761 5760 5758 5756 5754 5752 5749 5748 5746 5744 5741 5738 5735 5733 5731 5729 5726 5724 5721 5718 5715 5712 5710 5707 5704 5701 5698 5695 5692 5690 5689 5688
5760 5760 5763 5765 5766 5765 5767 5771 5773 5772 5771 5772 5772 5772 5772 5774 5775 5775 5775 5776 5776 5776 5776 5776 5776 5776 5777 5776 5776 5776 5776 5775 5775 5774 5773 5773 5773 5772 5772 5771 5770 5769 5769 5768 5767 5766 5765 5764 5763 5761 5760 5759 5758 5756 5755 5754 5752 5750 5748 5746 5744 5742 5740 5738 5735 5732 5730 5727 5725 5723 5721 5719 5716 5714 5711 5708 5705 5702 5699 5696 5693 5690 5687 5685 5684 5683